Time,TemperatureF,DewpointF,PressureIn,WindDirection,WindDirectionDegrees,WindSpeedMPH,WindSpeedGustMPH,Humidity,HourlyPrecipIn,Conditions,Clouds,dailyrainin,SoftwareType,DateUTC
2013-04-27 00:00:00,66.2,60.6,30.22,ENE,68,0.2,2.2,82,0.00,,,0.00,WUHU216HW,2013-04-27 04:00:00,
2013-04-27 00:01:00,66.2,60.6,30.22,East,90,0.4,2.2,82,0.00,,,0.00,WUHU216HW,2013-04-27 04:01:00,
2013-04-27 00:06:00,66.4,61.1,30.22,East,90,0.7,2.2,83,0.00,,,0.00,WUHU216HW,2013-04-27 04:06:00,
2013-04-27 00:11:00,66.6,60.9,30.22,East,90,0.4,2.0,82,0.00,,,0.00,WUHU216HW,2013-04-27 04:11:00,
2013-04-27 00:16:00,66.4,60.5,30.22,NNE,23,0.2,0.9,81,0.00,,,0.00,WUHU216HW,2013-04-27 04:16:00,
2013-04-27 00:21:00,66.4,60.5,30.21,ENE,68,0.2,0.4,81,0.00,,,0.00,WUHU216HW,2013-04-27 04:21:00,
2013-04-27 00:26:00,66.4,61.1,30.21,SE,135,0.4,1.6,83,0.00,,,0.00,WUHU216HW,2013-04-27 04:26:00,
2013-04-27 00:31:00,66.4,60.8,30.21,NNE,23,0.4,2.0,82,0.00,,,0.00,WUHU216HW,2013-04-27 04:31:00,
2013-04-27 00:36:00,66.4,60.8,30.21,NE,45,0.4,2.0,82,0.00,,,0.00,WUHU216HW,2013-04-27 04:36:00,
2013-04-27 00:42:00,66.2,60.6,30.21,NNW,338,0.2,2.0,82,0.00,,,0.00,WUHU216HW,2013-04-27 04:42:00,
2013-04-27 00:47:00,66.2,60.9,30.20,ESE,113,0.7,2.5,83,0.00,,,0.00,WUHU216HW,2013-04-27 04:47:00,
2013-04-27 00:52:00,66.2,60.9,30.20,NE,45,0.4,2.5,83,0.00,,,0.00,WUHU216HW,2013-04-27 04:52:00,
2013-04-27 00:57:00,66.2,60.9,30.20,NE,45,0.4,1.1,83,0.00,,,0.00,WUHU216HW,2013-04-27 04:57:00,
2013-04-27 01:02:00,66.2,60.6,30.20,ENE,68,0.2,0.4,82,0.00,,,0.00,WUHU216HW,2013-04-27 05:02:00,
2013-04-27 01:07:00,66.2,60.9,30.19,ENE,68,0.4,4.0,83,0.00,,,0.00,WUHU216HW,2013-04-27 05:07:00,
2013-04-27 01:12:00,66.1,60.8,30.19,ENE,68,0.0,4.0,83,0.00,,,0.00,WUHU216HW,2013-04-27 05:12:00,
2013-04-27 01:17:00,66.1,60.8,30.19,East,90,0.2,1.8,83,0.00,,,0.00,WUHU216HW,2013-04-27 05:17:00,
2013-04-27 01:22:00,66.1,60.8,30.19,East,90,0.4,1.1,83,0.00,,,0.00,WUHU216HW,2013-04-27 05:22:00,
2013-04-27 01:27:00,65.9,60.6,30.19,ENE,68,0.0,1.1,83,0.00,,,0.00,WUHU216HW,2013-04-27 05:27:00,
2013-04-27 01:32:00,65.5,59.9,30.19,ENE,68,0.0,0.7,82,0.00,,,0.00,WUHU216HW,2013-04-27 05:32:00,
2013-04-27 01:37:00,65.2,59.5,30.18,ENE,68,0.0,0.4,82,0.00,,,0.00,WUHU216HW,2013-04-27 05:37:00,
2013-04-27 01:42:00,65.2,59.5,30.18,ENE,68,0.0,0.0,82,0.00,,,0.00,WUHU216HW,2013-04-27 05:42:00,
2013-04-27 01:46:00,64.8,58.9,30.18,ENE,68,0.0,0.0,81,0.00,,,0.00,WUHU216HW,2013-04-27 05:46:00,
2013-04-27 01:51:00,64.6,58.7,30.18,ENE,68,0.0,0.0,81,0.00,,,0.00,WUHU216HW,2013-04-27 05:51:00,
2013-04-27 01:57:00,64.3,58.7,30.18,ENE,68,0.0,0.0,82,0.00,,,0.00,WUHU216HW,2013-04-27 05:57:00,
2013-04-27 02:02:00,64.1,58.2,30.18,NNE,23,0.0,0.0,81,0.00,,,0.00,WUHU216HW,2013-04-27 06:02:00,
2013-04-27 02:06:00,63.7,57.8,30.18,NNE,23,0.0,0.0,81,0.00,,,0.00,WUHU216HW,2013-04-27 06:06:00,
2013-04-27 02:12:00,63.5,58.0,30.18,NNE,23,0.0,0.0,82,0.00,,,0.00,WUHU216HW,2013-04-27 06:12:00,
2013-04-27 02:17:00,63.4,57.4,30.18,NNE,23,0.0,0.0,81,0.00,,,0.00,WUHU216HW,2013-04-27 06:17:00,
2013-04-27 02:21:00,63.2,57.3,30.17,NNE,23,0.0,0.0,81,0.00,,,0.00,WUHU216HW,2013-04-27 06:21:00,
2013-04-27 02:26:00,63.0,57.1,30.17,NNE,23,0.0,0.0,81,0.00,,,0.00,WUHU216HW,2013-04-27 06:26:00,
2013-04-27 02:31:00,62.8,57.3,30.17,North,0,0.0,0.0,82,0.00,,,0.00,WUHU216HW,2013-04-27 06:31:00,
2013-04-27 02:36:00,62.6,57.1,30.17,North,0,0.0,0.0,82,0.00,,,0.00,WUHU216HW,2013-04-27 06:36:00,
2013-04-27 02:41:00,62.6,57.1,30.17,North,0,0.0,0.0,82,0.00,,,0.00,WUHU216HW,2013-04-27 06:41:00,
2013-04-27 02:46:00,62.3,56.7,30.17,North,0,0.0,0.0,82,0.00,,,0.00,WUHU216HW,2013-04-27 06:46:00,
2013-04-27 02:51:00,62.3,56.7,30.17,North,0,0.0,0.0,82,0.00,,,0.00,WUHU216HW,2013-04-27 06:51:00,
2013-04-27 02:56:00,62.1,56.5,30.17,North,0,0.0,0.0,82,0.00,,,0.00,WUHU216HW,2013-04-27 06:56:00,
2013-04-27 03:01:00,61.9,56.7,30.17,North,0,0.0,0.0,83,0.00,,,0.00,WUHU216HW,2013-04-27 07:01:00,
2013-04-27 03:06:00,61.7,56.5,30.17,North,0,0.0,0.0,83,0.00,,,0.00,WUHU216HW,2013-04-27 07:06:00,
2013-04-27 03:11:00,61.6,56.3,30.17,North,0,0.0,0.0,83,0.00,,,0.00,WUHU216HW,2013-04-27 07:11:00,
2013-04-27 03:16:00,61.6,56.3,30.17,North,0,0.0,0.0,83,0.00,,,0.00,WUHU216HW,2013-04-27 07:16:00,
2013-04-27 03:21:00,61.6,56.3,30.17,North,0,0.0,0.0,83,0.00,,,0.00,WUHU216HW,2013-04-27 07:21:00,
2013-04-27 03:26:00,61.4,56.2,30.17,North,0,0.0,0.0,83,0.00,,,0.00,WUHU216HW,2013-04-27 07:26:00,
2013-04-27 03:31:00,61.2,56.1,30.18,North,0,0.0,0.0,83,0.00,,,0.00,WUHU216HW,2013-04-27 07:31:00,
2013-04-27 03:36:00,61.2,56.3,30.18,North,0,0.0,0.0,84,0.00,,,0.00,WUHU216HW,2013-04-27 07:36:00,
2013-04-27 03:41:00,61.0,56.2,30.18,North,0,0.0,0.0,84,0.00,,,0.00,WUHU216HW,2013-04-27 07:41:00,
2013-04-27 03:46:00,60.8,56.0,30.18,North,0,0.0,0.0,84,0.00,,,0.00,WUHU216HW,2013-04-27 07:46:00,
2013-04-27 03:51:00,60.8,56.0,30.18,North,0,0.0,0.0,84,0.00,,,0.00,WUHU216HW,2013-04-27 07:51:00,
2013-04-27 03:56:00,60.8,56.0,30.18,North,0,0.0,0.0,84,0.00,,,0.00,WUHU216HW,2013-04-27 07:56:00,
2013-04-27 04:01:00,60.8,56.0,30.18,North,0,0.0,0.0,84,0.00,,,0.00,WUHU216HW,2013-04-27 08:01:00,
2013-04-27 04:06:00,60.8,56.0,30.17,North,0,0.0,0.0,84,0.00,,,0.00,WUHU216HW,2013-04-27 08:06:00,
2013-04-27 04:11:00,60.7,55.8,30.18,North,0,0.0,0.0,84,0.00,,,0.00,WUHU216HW,2013-04-27 08:11:00,
2013-04-27 04:16:00,60.5,55.6,30.18,North,0,0.0,0.0,84,0.00,,,0.00,WUHU216HW,2013-04-27 08:16:00,
2013-04-27 04:21:00,60.5,55.6,30.18,North,0,0.0,0.0,84,0.00,,,0.00,WUHU216HW,2013-04-27 08:21:00,
2013-04-27 04:26:00,60.5,55.6,30.18,North,0,0.0,0.0,84,0.00,,,0.00,WUHU216HW,2013-04-27 08:26:00,
2013-04-27 04:31:00,60.5,55.6,30.18,North,0,0.0,0.0,84,0.00,,,0.00,WUHU216HW,2013-04-27 08:31:00,
2013-04-27 04:36:00,60.5,55.6,30.18,North,0,0.0,0.0,84,0.00,,,0.00,WUHU216HW,2013-04-27 08:36:00,
2013-04-27 04:41:00,60.5,55.6,30.18,North,0,0.0,0.0,84,0.00,,,0.00,WUHU216HW,2013-04-27 08:41:00,
2013-04-27 04:46:00,60.3,55.4,30.18,North,0,0.0,0.0,84,0.00,,,0.00,WUHU216HW,2013-04-27 08:46:00,
2013-04-27 04:51:00,60.3,55.4,30.18,North,0,0.0,0.0,84,0.00,,,0.00,WUHU216HW,2013-04-27 08:51:00,
2013-04-27 04:56:00,60.3,55.8,30.18,North,0,0.0,0.0,85,0.00,,,0.00,WUHU216HW,2013-04-27 08:56:00,
2013-04-27 05:01:00,60.1,55.3,30.18,North,0,0.0,0.0,84,0.00,,,0.00,WUHU216HW,2013-04-27 09:01:00,
2013-04-27 05:06:00,60.1,55.6,30.18,North,0,0.0,0.0,85,0.00,,,0.00,WUHU216HW,2013-04-27 09:06:00,
2013-04-27 05:11:00,60.1,55.6,30.18,North,0,0.0,0.0,85,0.00,,,0.00,WUHU216HW,2013-04-27 09:11:00,
2013-04-27 05:16:00,60.1,55.6,30.18,North,0,0.0,0.0,85,0.00,,,0.00,WUHU216HW,2013-04-27 09:16:00,
2013-04-27 05:21:00,60.1,55.6,30.18,North,0,0.0,0.0,85,0.00,,,0.00,WUHU216HW,2013-04-27 09:21:00,
2013-04-27 05:26:00,60.1,55.6,30.18,North,0,0.0,0.0,85,0.00,,,0.00,WUHU216HW,2013-04-27 09:26:00,
2013-04-27 05:31:00,59.9,55.4,30.18,North,0,0.0,0.0,85,0.00,,,0.00,WUHU216HW,2013-04-27 09:31:00,
2013-04-27 05:36:00,59.9,55.4,30.18,North,0,0.0,0.0,85,0.00,,,0.00,WUHU216HW,2013-04-27 09:36:00,
2013-04-27 05:41:00,59.8,55.3,30.18,North,0,0.0,0.0,85,0.00,,,0.00,WUHU216HW,2013-04-27 09:41:00,
2013-04-27 05:46:00,59.9,55.4,30.18,North,0,0.0,0.0,85,0.00,,,0.00,WUHU216HW,2013-04-27 09:46:00,
2013-04-27 05:51:00,59.8,55.3,30.18,North,0,0.0,0.0,85,0.00,,,0.00,WUHU216HW,2013-04-27 09:51:00,
2013-04-27 05:56:00,59.8,55.3,30.18,North,0,0.0,0.0,85,0.00,,,0.00,WUHU216HW,2013-04-27 09:56:00,
2013-04-27 06:01:00,59.6,55.1,30.18,North,0,0.0,0.0,85,0.00,,,0.00,WUHU216HW,2013-04-27 10:01:00,
2013-04-27 06:06:00,59.6,55.1,30.18,North,0,0.0,0.0,85,0.00,,,0.00,WUHU216HW,2013-04-27 10:06:00,
2013-04-27 06:11:00,59.8,55.6,30.18,North,0,0.0,0.0,86,0.00,,,0.00,WUHU216HW,2013-04-27 10:11:00,
2013-04-27 06:16:00,59.6,55.5,30.18,North,0,0.0,0.0,86,0.00,,,0.00,WUHU216HW,2013-04-27 10:16:00,
2013-04-27 06:21:00,59.6,55.5,30.18,North,0,0.0,0.0,86,0.00,,,0.00,WUHU216HW,2013-04-27 10:21:00,
2013-04-27 06:26:00,59.8,55.6,30.18,North,0,0.0,0.0,86,0.00,,,0.00,WUHU216HW,2013-04-27 10:26:00,
2013-04-27 06:31:00,59.8,55.6,30.18,North,0,0.0,0.0,86,0.00,,,0.00,WUHU216HW,2013-04-27 10:31:00,
2013-04-27 06:36:00,59.8,55.6,30.18,North,0,0.0,0.2,86,0.00,,,0.00,WUHU216HW,2013-04-27 10:36:00,
2013-04-27 06:41:00,60.3,56.4,30.18,NNW,338,0.2,0.2,87,0.00,,,0.00,WUHU216HW,2013-04-27 10:41:00,
2013-04-27 06:46:00,60.7,56.8,30.18,North,0,0.0,0.2,87,0.00,,,0.00,WUHU216HW,2013-04-27 10:46:00,
2013-04-27 06:51:00,60.7,56.8,30.18,North,0,0.0,0.0,87,0.00,,,0.00,WUHU216HW,2013-04-27 10:51:00,
2013-04-27 06:56:00,61.4,57.5,30.18,NNW,338,0.0,0.7,87,0.00,,,0.00,WUHU216HW,2013-04-27 10:56:00,
2013-04-27 07:01:00,61.9,58.4,30.18,ENE,68,0.0,0.7,88,0.00,,,0.00,WUHU216HW,2013-04-27 11:01:00,
2013-04-27 07:06:00,62.3,59.0,30.18,ESE,113,0.0,0.9,89,0.00,,,0.00,WUHU216HW,2013-04-27 11:06:00,
2013-04-27 07:11:00,62.6,59.0,30.18,NE,45,0.2,0.9,88,0.00,,,0.00,WUHU216HW,2013-04-27 11:11:00,
2013-04-27 07:16:00,62.8,59.2,30.18,NNE,23,0.2,0.4,88,0.00,,,0.00,WUHU216HW,2013-04-27 11:16:00,
2013-04-27 07:21:00,63.0,59.4,30.19,North,0,0.2,0.4,88,0.00,,,0.00,WUHU216HW,2013-04-27 11:21:00,
2013-04-27 07:26:00,63.5,59.9,30.19,WSW,248,0.4,1.8,88,0.00,,,0.00,WUHU216HW,2013-04-27 11:26:00,
2013-04-27 07:31:00,63.7,59.9,30.19,NE,45,1.3,1.8,87,0.00,,,0.00,WUHU216HW,2013-04-27 11:31:00,
2013-04-27 07:36:00,64.1,60.2,30.20,SSE,158,0.7,1.6,87,0.00,,,0.00,WUHU216HW,2013-04-27 11:36:00,
2013-04-27 07:41:00,64.4,60.6,30.20,NE,45,0.4,1.3,87,0.00,,,0.00,WUHU216HW,2013-04-27 11:41:00,
2013-04-27 07:46:00,64.8,60.6,30.20,SE,135,0.7,3.4,86,0.00,,,0.00,WUHU216HW,2013-04-27 11:46:00,
2013-04-27 07:51:00,65.2,61.2,30.20,ENE,68,0.4,3.4,87,0.00,,,0.00,WUHU216HW,2013-04-27 11:51:00,
2013-04-27 07:56:00,65.5,61.2,30.20,NNW,338,0.4,1.8,86,0.00,,,0.00,WUHU216HW,2013-04-27 11:56:00,
2013-04-27 08:01:00,65.9,61.2,30.20,NE,45,0.2,1.3,85,0.00,,,0.00,WUHU216HW,2013-04-27 12:01:00,
2013-04-27 08:06:00,67.0,62.3,30.20,ESE,113,0.4,1.8,85,0.00,,,0.00,WUHU216HW,2013-04-27 12:06:00,
2013-04-27 08:11:00,68.2,63.2,30.19,WSW,248,0.2,1.8,84,0.00,,,0.00,WUHU216HW,2013-04-27 12:11:00,
2013-04-27 08:16:00,69.5,63.4,30.20,NE,45,0.2,1.1,81,0.00,,,0.00,WUHU216HW,2013-04-27 12:16:00,
2013-04-27 08:21:00,70.0,63.2,30.20,SW,225,0.4,3.1,79,0.00,,,0.00,WUHU216HW,2013-04-27 12:21:00,
2013-04-27 08:26:00,70.2,63.0,30.20,ENE,68,1.3,5.4,78,0.00,,,0.00,WUHU216HW,2013-04-27 12:26:00,
2013-04-27 08:31:00,70.7,63.6,30.20,East,90,1.1,5.4,78,0.00,,,0.00,WUHU216HW,2013-04-27 12:31:00,
2013-04-27 08:36:00,71.5,63.5,30.20,NE,45,0.7,2.0,76,0.00,,,0.00,WUHU216HW,2013-04-27 12:36:00,
2013-04-27 08:41:00,72.2,63.8,30.20,NE,45,0.2,2.0,75,0.00,,,0.00,WUHU216HW,2013-04-27 12:41:00,
2013-04-27 08:46:00,73.3,64.5,30.21,ENE,68,0.4,2.0,74,0.00,,,0.00,WUHU216HW,2013-04-27 12:46:00,
2013-04-27 08:51:00,73.6,64.1,30.21,SE,135,3.4,3.8,72,0.00,,,0.00,WUHU216HW,2013-04-27 12:51:00,
2013-04-27 08:56:00,73.8,64.3,30.21,NE,45,2.2,3.8,72,0.00,,,0.00,WUHU216HW,2013-04-27 12:56:00,
2013-04-27 09:01:00,74.5,64.5,30.21,NE,45,0.7,3.4,71,0.00,,,0.00,WUHU216HW,2013-04-27 13:01:00,
2013-04-27 09:06:00,75.2,65.2,30.21,NNE,23,1.8,4.5,71,0.00,,,0.00,WUHU216HW,2013-04-27 13:06:00,
2013-04-27 09:11:00,75.6,65.5,30.21,North,0,0.7,4.5,71,0.00,,,0.00,WUHU216HW,2013-04-27 13:11:00,
2013-04-27 09:16:00,76.0,65.5,30.21,ENE,68,0.4,2.0,70,0.00,,,0.00,WUHU216HW,2013-04-27 13:16:00,
2013-04-27 09:21:00,76.1,64.4,30.20,ENE,68,1.6,2.9,67,0.00,,,0.00,WUHU216HW,2013-04-27 13:21:00,
2013-04-27 09:26:00,76.1,64.8,30.21,North,0,0.2,6.9,68,0.00,,,0.00,WUHU216HW,2013-04-27 13:26:00,
2013-04-27 09:31:00,76.5,64.7,30.21,North,0,0.4,6.9,67,0.00,,,0.00,WUHU216HW,2013-04-27 13:31:00,
2013-04-27 09:36:00,76.1,63.9,30.21,NW,315,1.3,8.5,66,0.00,,,0.00,WUHU216HW,2013-04-27 13:36:00,
2013-04-27 09:41:00,76.7,64.9,30.21,NE,45,1.1,8.5,67,0.00,,,0.00,WUHU216HW,2013-04-27 13:41:00,
2013-04-27 09:48:00,76.7,64.4,30.21,NNE,23,0.7,4.0,66,0.00,,,0.00,WUHU216HW,2013-04-27 13:48:00,
2013-04-27 09:53:00,77.4,65.6,30.21,North,0,0.2,4.0,67,0.00,,,0.00,WUHU216HW,2013-04-27 13:53:00,
2013-04-27 09:58:00,77.4,64.7,30.22,SE,135,1.1,6.5,65,0.00,,,0.00,WUHU216HW,2013-04-27 13:58:00,
2013-04-27 10:03:00,76.9,63.7,30.22,WSW,248,2.9,6.5,64,0.00,,,0.00,WUHU216HW,2013-04-27 14:03:00,
2013-04-27 10:08:00,76.5,63.8,30.22,North,0,3.1,6.7,65,0.00,,,0.00,WUHU216HW,2013-04-27 14:08:00,
2013-04-27 10:13:00,76.3,64.1,30.22,NW,315,0.2,7.2,66,0.00,,,0.00,WUHU216HW,2013-04-27 14:13:00,
2013-04-27 10:18:00,77.4,65.2,30.22,NE,45,1.1,7.2,66,0.00,,,0.00,WUHU216HW,2013-04-27 14:18:00,
2013-04-27 10:23:00,77.8,65.5,30.22,ENE,68,1.3,6.5,66,0.00,,,0.00,WUHU216HW,2013-04-27 14:23:00,
2013-04-27 10:28:00,77.4,64.3,30.22,North,0,1.1,7.6,64,0.00,,,0.00,WUHU216HW,2013-04-27 14:28:00,
2013-04-27 10:33:00,76.9,63.7,30.22,East,90,1.1,7.6,64,0.00,,,0.00,WUHU216HW,2013-04-27 14:33:00,
2013-04-27 10:38:00,76.9,63.3,30.22,ESE,113,3.4,6.0,63,0.00,,,0.00,WUHU216HW,2013-04-27 14:38:00,
2013-04-27 10:43:00,76.9,63.3,30.22,ESE,113,8.7,8.7,63,0.00,,,0.00,WUHU216HW,2013-04-27 14:43:00,
2013-04-27 10:48:00,76.9,63.7,30.23,NE,45,1.1,8.7,64,0.00,,,0.00,WUHU216HW,2013-04-27 14:48:00,
2013-04-27 10:53:00,77.6,64.9,30.23,ESE,113,0.4,8.7,65,0.00,,,0.00,WUHU216HW,2013-04-27 14:53:00,
2013-04-27 10:58:00,77.8,63.7,30.23,NNE,23,0.7,5.4,62,0.00,,,0.00,WUHU216HW,2013-04-27 14:58:00,
2013-04-27 11:03:00,77.4,64.3,30.22,WNW,293,0.4,6.3,64,0.00,,,0.00,WUHU216HW,2013-04-27 15:03:00,
2013-04-27 11:08:00,78.1,63.6,30.23,South,180,1.3,6.3,61,0.00,,,0.00,WUHU216HW,2013-04-27 15:08:00,
2013-04-27 11:13:00,78.1,63.6,30.22,ENE,68,1.6,5.6,61,0.00,,,0.00,WUHU216HW,2013-04-27 15:13:00,
2013-04-27 11:18:00,78.5,63.5,30.23,ENE,68,0.4,5.6,60,0.00,,,0.00,WUHU216HW,2013-04-27 15:18:00,
2013-04-27 11:23:00,78.8,62.8,30.23,East,90,3.4,3.6,58,0.00,,,0.00,WUHU216HW,2013-04-27 15:23:00,
2013-04-27 11:28:00,78.8,62.8,30.22,NW,315,2.0,3.6,58,0.00,,,0.00,WUHU216HW,2013-04-27 15:28:00,
2013-04-27 11:33:00,79.2,62.6,30.22,North,0,2.5,3.4,57,0.00,,,0.00,WUHU216HW,2013-04-27 15:33:00,
2013-04-27 11:38:00,79.2,64.3,30.22,West,270,0.7,3.1,60,0.00,,,0.00,WUHU216HW,2013-04-27 15:38:00,
2013-04-27 11:43:00,79.6,64.0,30.23,NNE,23,3.1,7.6,59,0.00,,,0.00,WUHU216HW,2013-04-27 15:43:00,
2013-04-27 11:48:00,79.4,63.4,30.22,ESE,113,4.0,7.6,58,0.00,,,0.00,WUHU216HW,2013-04-27 15:48:00,
2013-04-27 11:53:00,79.6,63.6,30.22,ESE,113,0.9,6.3,58,0.00,,,0.00,WUHU216HW,2013-04-27 15:53:00,
2013-04-27 11:58:00,79.9,65.4,30.22,North,0,0.2,6.3,61,0.00,,,0.00,WUHU216HW,2013-04-27 15:58:00,
2013-04-27 12:03:00,80.3,63.6,30.22,NW,315,1.8,5.4,57,0.00,,,0.00,WUHU216HW,2013-04-27 16:03:00,
2013-04-27 12:08:00,80.3,64.7,30.21,NW,315,1.8,5.1,59,0.00,,,0.00,WUHU216HW,2013-04-27 16:08:00,
2013-04-27 12:13:00,80.3,63.6,30.21,ESE,113,1.3,5.1,57,0.00,,,0.00,WUHU216HW,2013-04-27 16:13:00,
2013-04-27 12:18:00,79.9,63.3,30.21,ENE,68,1.8,4.3,57,0.00,,,0.00,WUHU216HW,2013-04-27 16:18:00,
2013-04-27 12:23:00,79.9,64.4,30.21,NE,45,2.0,6.9,59,0.00,,,0.00,WUHU216HW,2013-04-27 16:23:00,
2013-04-27 12:28:00,80.5,65.3,30.21,ESE,113,5.1,7.4,60,0.00,,,0.00,WUHU216HW,2013-04-27 16:28:00,
2013-04-27 12:33:00,81.2,64.4,30.21,ESE,113,1.6,7.4,57,0.00,,,0.00,WUHU216HW,2013-04-27 16:33:00,
2013-04-27 12:38:00,81.2,63.4,30.20,ESE,113,5.6,5.6,55,0.00,,,0.00,WUHU216HW,2013-04-27 16:38:00,
2013-04-27 12:43:00,80.6,64.4,30.20,East,90,1.3,6.7,58,0.00,,,0.00,WUHU216HW,2013-04-27 16:43:00,
2013-04-27 12:48:00,80.6,63.5,30.20,ESE,113,1.3,6.7,56,0.00,,,0.00,WUHU216HW,2013-04-27 16:48:00,
2013-04-27 12:53:00,80.5,63.8,30.19,NNE,23,2.2,6.9,57,0.00,,,0.00,WUHU216HW,2013-04-27 16:53:00,
2013-04-27 12:58:00,81.0,64.8,30.19,SE,135,5.4,6.9,58,0.00,,,0.00,WUHU216HW,2013-04-27 16:58:00,
2013-04-27 13:03:00,80.6,62.9,30.19,ESE,113,4.7,7.8,55,0.00,,,0.00,WUHU216HW,2013-04-27 17:03:00,
2013-04-27 13:08:00,80.6,63.5,30.19,NE,45,1.6,7.8,56,0.00,,,0.00,WUHU216HW,2013-04-27 17:08:00,
2013-04-27 13:13:00,80.6,62.9,30.19,East,90,2.9,4.7,55,0.00,,,0.00,WUHU216HW,2013-04-27 17:13:00,
2013-04-27 13:18:00,80.6,63.5,30.19,ESE,113,3.8,4.3,56,0.00,,,0.00,WUHU216HW,2013-04-27 17:18:00,
2013-04-27 13:23:00,81.0,64.3,30.19,ESE,113,1.1,4.7,57,0.00,,,0.00,WUHU216HW,2013-04-27 17:23:00,
2013-04-27 13:28:00,80.5,61.8,30.19,NNE,23,1.6,6.9,53,0.00,,,0.00,WUHU216HW,2013-04-27 17:28:00,
2013-04-27 13:33:00,80.5,61.8,30.18,ESE,113,3.6,6.9,53,0.00,,,0.00,WUHU216HW,2013-04-27 17:33:00,
2013-04-27 13:38:00,81.4,64.1,30.18,SSE,158,3.4,6.3,56,0.00,,,0.00,WUHU216HW,2013-04-27 17:38:00,
2013-04-27 13:43:00,81.4,63.5,30.18,SSE,158,3.1,7.6,55,0.00,,,0.00,WUHU216HW,2013-04-27 17:43:00,
2013-04-27 13:48:00,81.5,64.8,30.18,SE,135,6.9,7.6,57,0.00,,,0.00,WUHU216HW,2013-04-27 17:48:00,
2013-04-27 13:53:00,82.1,63.7,30.18,ENE,68,1.3,7.4,54,0.00,,,0.00,WUHU216HW,2013-04-27 17:53:00,
2013-04-27 13:58:00,81.5,62.2,30.18,SE,135,4.0,7.4,52,0.00,,,0.00,WUHU216HW,2013-04-27 17:58:00,
2013-04-27 14:03:00,81.4,63.5,30.18,SE,135,6.3,6.3,55,0.00,,,0.00,WUHU216HW,2013-04-27 18:03:00,
2013-04-27 14:08:00,81.2,60.8,30.18,NW,315,0.7,6.3,50,0.00,,,0.00,WUHU216HW,2013-04-27 18:08:00,
2013-04-27 14:13:00,81.4,63.0,30.18,ESE,113,0.9,8.5,54,0.00,,,0.00,WUHU216HW,2013-04-27 18:13:00,
2013-04-27 14:18:00,81.7,62.3,30.17,SE,135,0.2,8.5,52,0.00,,,0.00,WUHU216HW,2013-04-27 18:18:00,
2013-04-27 14:23:00,81.5,62.6,30.17,SE,135,1.8,4.0,53,0.00,,,0.00,WUHU216HW,2013-04-27 18:23:00,
2013-04-27 14:28:00,81.4,62.0,30.17,NE,45,1.8,6.3,52,0.00,,,0.00,WUHU216HW,2013-04-27 18:28:00,
2013-04-27 14:33:00,81.2,62.9,30.17,ESE,113,4.3,6.3,54,0.00,,,0.00,WUHU216HW,2013-04-27 18:33:00,
2013-04-27 14:38:00,81.4,63.0,30.17,East,90,4.5,5.1,54,0.00,,,0.00,WUHU216HW,2013-04-27 18:38:00,
2013-04-27 14:43:00,81.5,61.7,30.17,NNW,338,3.8,5.1,51,0.00,,,0.00,WUHU216HW,2013-04-27 18:43:00,
2013-04-27 14:48:00,81.7,62.3,30.17,ENE,68,0.9,4.5,52,0.00,,,0.00,WUHU216HW,2013-04-27 18:48:00,
2013-04-27 14:53:00,80.8,62.0,30.17,SE,135,2.7,4.3,53,0.00,,,0.00,WUHU216HW,2013-04-27 18:53:00,
2013-04-27 14:58:00,81.4,62.6,30.17,ESE,113,0.4,8.3,53,0.00,,,0.00,WUHU216HW,2013-04-27 18:58:00,
2013-04-27 15:03:00,81.4,63.5,30.16,SE,135,7.2,8.3,55,0.00,,,0.00,WUHU216HW,2013-04-27 19:03:00,
2013-04-27 15:08:00,82.1,63.2,30.16,ESE,113,1.8,7.2,53,0.00,,,0.00,WUHU216HW,2013-04-27 19:08:00,
2013-04-27 15:13:00,82.4,61.9,30.16,ENE,68,1.6,7.2,50,0.00,,,0.00,WUHU216HW,2013-04-27 19:13:00,
2013-04-27 15:18:00,82.1,62.6,30.16,ESE,113,5.1,8.5,52,0.00,,,0.00,WUHU216HW,2013-04-27 19:18:00,
2013-04-27 15:23:00,82.4,61.9,30.16,ESE,113,7.2,8.5,50,0.00,,,0.00,WUHU216HW,2013-04-27 19:23:00,
2013-04-27 15:28:00,82.1,61.0,30.16,NE,45,2.9,7.2,49,0.00,,,0.00,WUHU216HW,2013-04-27 19:28:00,
2013-04-27 15:33:00,81.7,59.4,30.16,North,0,0.7,7.2,47,0.00,,,0.00,WUHU216HW,2013-04-27 19:33:00,
2013-04-27 15:38:00,81.5,58.7,30.15,East,90,6.9,6.9,46,0.00,,,0.00,WUHU216HW,2013-04-27 19:38:00,
2013-04-27 15:43:00,81.7,60.7,30.15,ESE,113,2.0,6.9,49,0.00,,,0.00,WUHU216HW,2013-04-27 19:43:00,
2013-04-27 15:48:00,81.9,61.5,30.15,NNW,338,1.1,6.9,50,0.00,,,0.00,WUHU216HW,2013-04-27 19:48:00,
2013-04-27 15:53:00,81.9,62.5,30.15,North,0,0.7,4.0,52,0.00,,,0.00,WUHU216HW,2013-04-27 19:53:00,
2013-04-27 15:58:00,82.1,63.2,30.15,ESE,113,4.7,4.7,53,0.00,,,0.00,WUHU216HW,2013-04-27 19:58:00,
2013-04-27 16:03:00,82.4,61.9,30.15,ESE,113,6.9,6.9,50,0.00,,,0.00,WUHU216HW,2013-04-27 20:03:00,
2013-04-27 16:08:00,82.1,62.6,30.15,NNE,23,0.7,6.9,52,0.00,,,0.00,WUHU216HW,2013-04-27 20:08:00,
2013-04-27 16:13:00,81.5,62.6,30.15,East,90,5.1,6.9,53,0.00,,,0.00,WUHU216HW,2013-04-27 20:13:00,
2013-04-27 16:18:00,81.7,62.3,30.14,WSW,248,1.3,6.3,52,0.00,,,0.00,WUHU216HW,2013-04-27 20:18:00,
2013-04-27 16:23:00,80.8,62.0,30.14,SE,135,3.4,6.3,53,0.00,,,0.00,WUHU216HW,2013-04-27 20:23:00,
2013-04-27 16:28:00,80.8,61.5,30.14,East,90,1.6,7.4,52,0.00,,,0.00,WUHU216HW,2013-04-27 20:28:00,
2013-04-27 16:33:00,81.0,62.2,30.14,ESE,113,1.8,7.4,53,0.00,,,0.00,WUHU216HW,2013-04-27 20:33:00,
2013-04-27 16:38:00,81.0,62.2,30.14,ENE,68,0.4,5.8,53,0.00,,,0.00,WUHU216HW,2013-04-27 20:38:00,
2013-04-27 16:43:00,80.6,61.8,30.14,ESE,113,1.8,5.8,53,0.00,,,0.00,WUHU216HW,2013-04-27 20:43:00,
2013-04-27 16:48:00,80.3,60.5,30.14,NE,45,0.4,6.9,51,0.00,,,0.00,WUHU216HW,2013-04-27 20:48:00,
2013-04-27 16:53:00,80.1,61.4,30.14,NE,45,0.7,6.9,53,0.00,,,0.00,WUHU216HW,2013-04-27 20:53:00,
2013-04-27 16:58:00,80.6,61.4,30.14,East,90,0.2,1.8,52,0.00,,,0.00,WUHU216HW,2013-04-27 20:58:00,
2013-04-27 17:03:00,80.8,60.5,30.14,East,90,5.1,5.1,50,0.00,,,0.00,WUHU216HW,2013-04-27 21:03:00,
2013-04-27 17:08:00,80.3,60.5,30.14,East,90,4.7,7.2,51,0.00,,,0.00,WUHU216HW,2013-04-27 21:08:00,
2013-04-27 17:13:00,79.9,59.7,30.14,NW,315,0.4,7.2,50,0.00,,,0.00,WUHU216HW,2013-04-27 21:13:00,
2013-04-27 17:18:00,79.7,60.0,30.14,NW,315,1.3,6.3,51,0.00,,,0.00,WUHU216HW,2013-04-27 21:18:00,
2013-04-27 17:23:00,79.9,60.2,30.14,WNW,293,0.4,6.3,51,0.00,,,0.00,WUHU216HW,2013-04-27 21:23:00,
2013-04-27 17:28:00,79.7,58.9,30.14,ESE,113,1.8,5.4,49,0.00,,,0.00,WUHU216HW,2013-04-27 21:28:00,
2013-04-27 17:33:00,79.4,59.7,30.14,NE,45,0.4,7.4,51,0.00,,,0.00,WUHU216HW,2013-04-27 21:33:00,
2013-04-27 17:38:00,79.4,59.7,30.13,WNW,293,0.4,7.4,51,0.00,,,0.00,WUHU216HW,2013-04-27 21:38:00,
2013-04-27 17:43:00,79.2,59.5,30.13,ESE,113,1.1,2.5,51,0.00,,,0.00,WUHU216HW,2013-04-27 21:43:00,
2013-04-27 17:48:00,78.8,58.7,30.13,NNE,23,1.1,4.7,50,0.00,,,0.00,WUHU216HW,2013-04-27 21:48:00,
2013-04-27 17:53:00,78.7,59.6,30.14,ENE,68,0.9,5.4,52,0.00,,,0.00,WUHU216HW,2013-04-27 21:53:00,
2013-04-27 17:58:00,78.3,59.2,30.14,ENE,68,2.0,5.4,52,0.00,,,0.00,WUHU216HW,2013-04-27 21:58:00,
2013-04-27 18:03:00,77.8,59.2,30.14,ENE,68,1.1,6.3,53,0.00,,,0.00,WUHU216HW,2013-04-27 22:03:00,
2013-04-27 18:08:00,77.6,59.6,30.13,SSE,158,0.9,6.3,54,0.00,,,0.00,WUHU216HW,2013-04-27 22:08:00,
2013-04-27 18:13:00,77.4,59.4,30.13,North,0,0.4,3.4,54,0.00,,,0.00,WUHU216HW,2013-04-27 22:13:00,
2013-04-27 18:18:00,77.4,60.4,30.13,SE,135,2.5,3.1,56,0.00,,,0.00,WUHU216HW,2013-04-27 22:18:00,
2013-04-27 18:23:00,77.4,59.4,30.13,NW,315,0.2,5.1,54,0.00,,,0.00,WUHU216HW,2013-04-27 22:23:00,
2013-04-27 18:28:00,77.2,60.3,30.13,ENE,68,0.4,5.1,56,0.00,,,0.00,WUHU216HW,2013-04-27 22:28:00,
2013-04-27 18:33:00,77.0,60.1,30.13,ENE,68,0.0,1.8,56,0.00,,,0.00,WUHU216HW,2013-04-27 22:33:00,
2013-04-27 18:38:00,76.5,60.1,30.13,NE,45,2.5,6.3,57,0.00,,,0.00,WUHU216HW,2013-04-27 22:38:00,
2013-04-27 18:43:00,76.1,61.3,30.13,North,0,0.4,6.3,60,0.00,,,0.00,WUHU216HW,2013-04-27 22:43:00,
2013-04-27 18:48:00,75.8,61.4,30.13,NNW,338,0.4,5.1,61,0.00,,,0.00,WUHU216HW,2013-04-27 22:48:00,
2013-04-27 18:53:00,75.4,61.1,30.13,NW,315,0.9,4.0,61,0.00,,,0.00,WUHU216HW,2013-04-27 22:53:00,
2013-04-27 18:58:00,75.1,61.2,30.13,NNE,23,0.4,1.6,62,0.00,,,0.00,WUHU216HW,2013-04-27 22:58:00,
2013-04-27 19:03:00,74.5,61.1,30.13,North,0,0.4,1.6,63,0.00,,,0.00,WUHU216HW,2013-04-27 23:03:00,
2013-04-27 19:08:00,74.2,60.8,30.13,NNW,338,0.4,1.8,63,0.00,,,0.00,WUHU216HW,2013-04-27 23:08:00,
2013-04-27 19:13:00,74.0,60.6,30.13,NE,45,0.4,1.8,63,0.00,,,0.00,WUHU216HW,2013-04-27 23:13:00,
2013-04-27 19:18:00,73.6,61.1,30.13,NNW,338,0.7,1.8,65,0.00,,,0.00,WUHU216HW,2013-04-27 23:18:00,
2013-04-27 19:23:00,73.3,61.2,30.13,WSW,248,0.9,1.8,66,0.00,,,0.00,WUHU216HW,2013-04-27 23:23:00,
2013-04-27 19:28:00,73.1,61.5,30.13,NE,45,0.9,1.8,67,0.00,,,0.00,WUHU216HW,2013-04-27 23:28:00,
2013-04-27 19:33:00,72.9,61.3,30.13,NNE,23,0.4,1.8,67,0.00,,,0.00,WUHU216HW,2013-04-27 23:33:00,
2013-04-27 19:38:00,72.5,61.8,30.13,ENE,68,0.2,1.8,69,0.00,,,0.00,WUHU216HW,2013-04-27 23:38:00,
2013-04-27 19:43:00,72.4,62.5,30.13,SE,135,0.2,1.1,71,0.00,,,0.00,WUHU216HW,2013-04-27 23:43:00,
2013-04-27 19:48:00,72.0,62.1,30.13,East,90,0.0,1.1,71,0.00,,,0.00,WUHU216HW,2013-04-27 23:48:00,
2013-04-27 19:53:00,71.6,62.1,30.13,SSE,158,0.4,1.1,72,0.00,,,0.00,WUHU216HW,2013-04-27 23:53:00,
2013-04-27 19:58:00,71.3,62.2,30.13,ENE,68,0.4,1.3,73,0.00,,,0.00,WUHU216HW,2013-04-27 23:58:00,
2013-04-27 20:03:00,71.1,61.6,30.13,ESE,113,0.9,2.5,72,0.00,,,0.00,WUHU216HW,2013-04-28 00:03:00,
2013-04-27 20:08:00,70.9,61.4,30.13,NNE,23,0.0,2.5,72,0.00,,,0.00,WUHU216HW,2013-04-28 00:08:00,
2013-04-27 20:13:00,70.7,62.4,30.13,NNE,23,0.4,0.9,75,0.00,,,0.00,WUHU216HW,2013-04-28 00:13:00,
2013-04-27 20:18:00,70.4,62.0,30.13,ENE,68,0.0,0.7,75,0.00,,,0.00,WUHU216HW,2013-04-28 00:18:00,
2013-04-27 20:23:00,70.2,61.8,30.13,NNE,23,0.0,1.3,75,0.00,,,0.00,WUHU216HW,2013-04-28 00:23:00,
2013-04-27 20:28:00,70.0,62.0,30.13,North,0,0.0,1.3,76,0.00,,,0.00,WUHU216HW,2013-04-28 00:28:00,
2013-04-27 20:33:00,69.8,62.2,30.13,NNE,23,0.4,1.8,77,0.00,,,0.00,WUHU216HW,2013-04-28 00:33:00,
2013-04-27 20:38:00,69.7,61.7,30.13,NE,45,0.0,1.8,76,0.00,,,0.00,WUHU216HW,2013-04-28 00:38:00,
2013-04-27 20:43:00,69.7,61.7,30.13,East,90,0.0,0.7,76,0.00,,,0.00,WUHU216HW,2013-04-28 00:43:00,
2013-04-27 20:48:00,69.5,62.3,30.13,ENE,68,0.4,0.9,78,0.00,,,0.00,WUHU216HW,2013-04-28 00:48:00,
2013-04-27 20:53:00,69.5,61.9,30.13,NE,45,0.2,0.9,77,0.00,,,0.00,WUHU216HW,2013-04-28 00:53:00,
2013-04-27 20:58:00,69.3,62.1,30.13,North,0,0.4,0.4,78,0.00,,,0.00,WUHU216HW,2013-04-28 00:58:00,
2013-04-27 21:03:00,69.1,61.6,30.13,ENE,68,0.2,1.1,77,0.00,,,0.00,WUHU216HW,2013-04-28 01:03:00,
2013-04-27 21:08:00,69.1,61.6,30.13,North,0,0.0,1.1,77,0.00,,,0.00,WUHU216HW,2013-04-28 01:08:00,
2013-04-27 21:13:00,68.9,61.8,30.13,NE,45,0.4,0.4,78,0.00,,,0.00,WUHU216HW,2013-04-28 01:13:00,
2013-04-27 21:18:00,68.8,62.0,30.13,SE,135,0.0,1.1,79,0.00,,,0.00,WUHU216HW,2013-04-28 01:18:00,
2013-04-27 21:23:00,68.8,62.0,30.13,ESE,113,0.2,1.1,79,0.00,,,0.00,WUHU216HW,2013-04-28 01:23:00,
2013-04-27 21:28:00,68.6,61.5,30.13,ENE,68,0.0,0.4,78,0.00,,,0.00,WUHU216HW,2013-04-28 01:28:00,
2013-04-27 21:33:00,68.6,61.5,30.13,NNE,23,0.0,0.2,78,0.00,,,0.00,WUHU216HW,2013-04-28 01:33:00,
2013-04-27 21:38:00,68.4,61.7,30.13,NNE,23,0.0,0.4,79,0.00,,,0.00,WUHU216HW,2013-04-28 01:38:00,
2013-04-27 21:43:00,68.4,61.7,30.13,NE,45,0.0,0.4,79,0.00,,,0.00,WUHU216HW,2013-04-28 01:43:00,
2013-04-27 21:48:00,68.4,61.7,30.13,NE,45,0.0,0.2,79,0.00,,,0.00,WUHU216HW,2013-04-28 01:48:00,
2013-04-27 21:53:00,68.2,61.6,30.14,ENE,68,0.0,0.7,79,0.00,,,0.00,WUHU216HW,2013-04-28 01:53:00,
2013-04-27 21:58:00,68.2,61.6,30.14,NNE,23,0.0,0.9,79,0.00,,,0.00,WUHU216HW,2013-04-28 01:58:00,
2013-04-27 22:03:00,68.2,61.6,30.14,East,90,0.0,0.9,79,0.00,,,0.00,WUHU216HW,2013-04-28 02:03:00,
2013-04-27 22:08:00,68.0,61.0,30.14,NE,45,0.0,0.9,78,0.00,,,0.00,WUHU216HW,2013-04-28 02:08:00,
2013-04-27 22:13:00,68.0,61.0,30.14,ESE,113,0.2,0.4,78,0.00,,,0.00,WUHU216HW,2013-04-28 02:13:00,
2013-04-27 22:18:00,68.0,61.4,30.13,ESE,113,0.0,0.4,79,0.00,,,0.00,WUHU216HW,2013-04-28 02:18:00,
2013-04-27 22:23:00,68.2,61.9,30.14,NNW,338,0.4,0.4,80,0.00,,,0.00,WUHU216HW,2013-04-28 02:23:00,
2013-04-27 22:28:00,68.4,62.4,30.14,NW,315,0.4,1.3,81,0.00,,,0.00,WUHU216HW,2013-04-28 02:28:00,
2013-04-27 22:33:00,68.6,62.6,30.14,East,90,0.4,1.3,81,0.00,,,0.00,WUHU216HW,2013-04-28 02:33:00,
2013-04-27 22:38:00,68.8,62.7,30.13,North,0,0.2,2.5,81,0.00,,,0.00,WUHU216HW,2013-04-28 02:38:00,
2013-04-27 22:43:00,68.8,62.7,30.13,ENE,68,0.4,2.5,81,0.00,,,0.00,WUHU216HW,2013-04-28 02:43:00,
2013-04-27 22:48:00,68.9,63.2,30.13,NE,45,0.4,4.7,82,0.00,,,0.00,WUHU216HW,2013-04-28 02:48:00,
2013-04-27 22:53:00,68.9,63.2,30.14,SE,135,1.6,4.7,82,0.00,,,0.00,WUHU216HW,2013-04-28 02:53:00,
2013-04-27 22:58:00,69.1,63.7,30.13,NE,45,0.2,1.6,83,0.00,,,0.00,WUHU216HW,2013-04-28 02:58:00,
2013-04-27 23:03:00,69.1,64.1,30.13,NE,45,0.9,3.4,84,0.00,,,0.00,WUHU216HW,2013-04-28 03:03:00,
2013-04-27 23:08:00,69.1,64.1,30.13,ENE,68,0.4,3.8,84,0.00,,,0.00,WUHU216HW,2013-04-28 03:08:00,
2013-04-27 23:13:00,68.9,63.9,30.13,NE,45,0.0,3.8,84,0.00,,,0.00,WUHU216HW,2013-04-28 03:13:00,
2013-04-27 23:18:00,68.8,63.7,30.13,SSW,203,1.1,3.1,84,0.00,,,0.00,WUHU216HW,2013-04-28 03:18:00,
2013-04-27 23:23:00,68.8,64.1,30.13,NE,45,2.0,4.0,85,0.00,,,0.00,WUHU216HW,2013-04-28 03:23:00,
2013-04-27 23:28:00,68.8,63.7,30.14,East,90,0.0,4.0,84,0.00,,,0.00,WUHU216HW,2013-04-28 03:28:00,
2013-04-27 23:33:00,68.8,63.7,30.13,NE,45,2.5,2.5,84,0.00,,,0.00,WUHU216HW,2013-04-28 03:33:00,
2013-04-27 23:38:00,68.8,63.7,30.13,ENE,68,0.4,2.5,84,0.00,,,0.00,WUHU216HW,2013-04-28 03:38:00,
2013-04-27 23:43:00,68.8,63.7,30.14,East,90,0.4,2.7,84,0.00,,,0.00,WUHU216HW,2013-04-28 03:43:00,
2013-04-27 23:48:00,68.8,63.7,30.14,ENE,68,1.3,2.7,84,0.00,,,0.00,WUHU216HW,2013-04-28 03:48:00,
2013-04-27 23:53:00,68.8,63.4,30.14,East,90,0.9,1.6,83,0.00,,,0.00,WUHU216HW,2013-04-28 03:53:00,
2013-04-27 23:58:00,68.8,63.4,30.13,NNW,338,0.0,1.8,83,0.00,,,0.00,WUHU216HW,2013-04-28 03:58:00,